Flag for Germany Weather past 2 weeks in Verden (Aller), Lower Saxony, Germany

Now
55 °F

Fog.


Feels Like: 55 °F
Forecast: 51 / 73 °F
Wind: 1 mph from North

Location: Bremen Airport

Current Time: Aug 29, 2015 at 1:21:48 AM

Latest Report: Aug 29, 2015 at 12:20 AM


Visibility: N/A

Pressure: 30.15 "Hg

Humidity: 88%

Dew point: 52 °F

Location of Verden (Aller)Location

Historic Weather in Verden (Aller) — Graph

°F

Verden (Aller) temperature yesterday

Maximum temperature yesterday: 68 °F (at 3:50 PM)
Minimum temperature yesterday: 55 °F (at 1:50 AM)
Average temperature yesterday: 60 °F

Past Weeks' High & Low Weather Summary

 TemperatureHumidityPressure
High81 °F (Aug 14, 5:50 PM)100% (Aug 15, 3:20 AM)30.27 "Hg (Aug 15, 3:20 AM)
Low54 °F (Aug 20, 4:50 AM)30% (Aug 22, 1:50 PM)29.56 "Hg (Aug 24, 5:50 PM)
Average66 °F78%29.92 "Hg
* Reported Aug 13 11:20 PM — Aug 28 11:50 PM, Verden (Aller), Weather by CustomWeather, © 2015

Note: Actual official high and low records may vary slightly from our data, if they occured in-between our weather recording intervals... More about our weather records

Advertising

Verden (Aller) weather history for previous 24 hours

 ConditionsComfort  
Time TempWeatherWind HumidityBarometerVisibility
11:50 PM
Fri, Aug 28
55 °FFog.2 mph88%30.15 "HgN/A
11:20 PM55 °FClear.2 mph88%30.15 "Hg10 mi
10:50 PM55 °FClear.5 mph88%30.12 "Hg10 mi
10:20 PM57 °FPassing clouds.6 mph82%30.12 "HgN/A
9:50 PM59 °FPassing clouds.6 mph82%30.12 "HgN/A
9:20 PM61 °FScattered clouds.6 mph77%30.09 "HgN/A
8:50 PM63 °FBroken clouds.6 mph77%30.09 "HgN/A
8:20 PM63 °FPartly sunny.7 mph77%30.09 "HgN/A
7:50 PM63 °FPartly sunny.6 mph77%30.07 "HgN/A
7:20 PM64 °FPartly sunny.8 mph73%30.07 "HgN/A
6:50 PM66 °FScattered clouds.8 mph68%30.07 "HgN/A
6:20 PM68 °FPassing clouds.10 mph64%30.07 "HgN/A
5:50 PM66 °FPassing clouds.8 mph64%30.07 "HgN/A
5:20 PM68 °FPassing clouds.8 mph60%30.07 "HgN/A
4:50 PM68 °FPassing clouds.10 mph60%30.07 "HgN/A
4:20 PM68 °FPassing clouds.10 mph60%30.07 "HgN/A
3:50 PM68 °FPassing clouds.13 mph60%30.07 "HgN/A
3:20 PM66 °FScattered clouds.9 mph64%30.07 "HgN/A
2:50 PM66 °FScattered clouds.10 mph64%30.04 "HgN/A
2:20 PM64 °FScattered clouds.7 mph78%30.04 "HgN/A
1:50 PM64 °FPartly sunny.10 mph73%30.04 "HgN/A
1:20 PM63 °FPartly sunny.8 mph77%30.04 "HgN/A
12:50 PM63 °FPartly sunny.9 mph77%30.04 "HgN/A
12:20 PM61 °FPartly sunny.7 mph83%30.04 "HgN/A
11:50 AM61 °FPartly sunny.9 mph83%30.04 "HgN/A
11:20 AM61 °FPartly sunny.8 mph83%30.01 "HgN/A
10:50 AM59 °FBroken clouds.9 mph88%30.01 "HgN/A
10:20 AM59 °FPartly sunny.9 mph88%30.01 "HgN/A
9:50 AM59 °FPartly sunny.10 mph88%30.01 "HgN/A
9:20 AM59 °FBroken clouds.9 mph94%29.98 "Hg4 mi
8:50 AM59 °FPartly sunny.8 mph88%29.98 "Hg4 mi
8:20 AM57 °FFog.8 mph94%29.98 "Hg3 mi
7:50 AM57 °FFog.7 mph94%29.95 "Hg3 mi
7:20 AM57 °FFog.8 mph94%29.95 "Hg3 mi
6:50 AM57 °FFog.8 mph94%29.92 "Hg3 mi
6:20 AM57 °FPassing clouds.7 mph94%29.92 "Hg3 mi
5:50 AM57 °FPassing clouds.7 mph94%29.92 "Hg4 mi
5:20 AM57 °FPassing clouds.7 mph94%29.92 "HgN/A
4:50 AM57 °FPassing clouds.7 mph94%29.92 "HgN/A
4:20 AM57 °FPassing clouds.7 mph94%29.89 "HgN/A
3:50 AM57 °FPassing clouds.8 mph94%29.89 "HgN/A
3:20 AM57 °FPassing clouds.8 mph94%29.89 "HgN/A
2:50 AM57 °FClear.7 mph94%29.89 "Hg10 mi
2:20 AM55 °FClear.6 mph100%29.86 "Hg10 mi
1:50 AM55 °FClear.6 mph100%29.86 "Hg10 mi
1:20 AM57 °FClear.6 mph94%29.86 "Hg10 mi
Weather by CustomWeather, © 2015

See weather overviewHow to use our weather pages